Time,TemperatureF,DewpointF,PressureIn,WindDirection,WindDirectionDegrees,WindSpeedMPH,WindSpeedGustMPH,Humidity,HourlyPrecipIn,Conditions,Clouds,dailyrainin,SolarRadiationWatts/m^2,SoftwareType,DateUTC
2013-12-25 00:01:00,22.9,7.0,30.48,NW,314,11.0,11.0,50,0.00,,,0.00,0,Wunderground v.1.15,2013-12-25 05:01:00,
2013-12-25 00:05:00,22.9,7.4,30.48,WNW,286,0.0,11.0,51,0.00,,,0.00,0,Wunderground v.1.15,2013-12-25 05:05:00,
2013-12-25 00:07:00,22.9,7.4,30.48,West,280,0.0,11.0,51,0.00,,,0.00,0,Wunderground v.1.15,2013-12-25 05:07:00,
2013-12-25 00:08:00,22.9,7.4,30.48,NW,306,0.0,11.0,51,0.00,,,0.00,0,Wunderground v.1.15,2013-12-25 05:08:00,
2013-12-25 00:14:00,22.9,7.9,30.48,NW,316,0.0,3.0,52,0.00,,,0.00,0,Wunderground v.1.15,2013-12-25 05:14:00,
2013-12-25 00:18:00,22.8,7.8,30.48,WNW,296,7.0,7.0,52,0.00,,,0.00,0,Wunderground v.1.15,2013-12-25 05:18:00,
2013-12-25 00:23:00,22.8,7.8,30.48,WNW,284,0.0,2.0,52,0.00,,,0.00,0,Wunderground v.1.15,2013-12-25 05:23:00,
2013-12-25 00:28:00,22.7,7.7,30.48,WNW,300,0.0,2.0,52,0.00,,,0.00,0,Wunderground v.1.15,2013-12-25 05:28:00,
2013-12-25 00:34:00,22.7,8.1,30.48,NW,324,0.0,4.0,53,0.00,,,0.00,0,Wunderground v.1.15,2013-12-25 05:34:00,
2013-12-25 00:40:00,22.6,8.0,30.48,NW,305,0.0,1.0,53,0.00,,,0.00,0,Wunderground v.1.15,2013-12-25 05:40:00,
2013-12-25 00:45:00,22.6,8.0,30.49,West,261,0.0,4.0,53,0.00,,,0.00,0,Wunderground v.1.15,2013-12-25 05:45:00,
2013-12-25 00:50:00,22.6,8.0,30.48,NW,317,4.0,4.0,53,0.00,,,0.00,0,Wunderground v.1.15,2013-12-25 05:50:00,
2013-12-25 00:56:00,22.5,7.9,30.48,WNW,290,7.0,7.0,53,0.00,,,0.00,0,Wunderground v.1.15,2013-12-25 05:56:00,
2013-12-25 01:02:00,22.5,8.3,30.48,NW,306,0.0,3.0,54,0.00,,,0.00,0,Wunderground v.1.15,2013-12-25 06:02:00,
2013-12-25 01:08:00,22.4,8.2,30.48,WNW,288,0.0,3.0,54,0.00,,,0.00,0,Wunderground v.1.15,2013-12-25 06:08:00,
2013-12-25 01:13:00,22.4,8.2,30.48,NW,317,1.0,1.0,54,0.00,,,0.00,0,Wunderground v.1.15,2013-12-25 06:13:00,
2013-12-25 01:18:00,22.3,8.2,30.47,NW,310,0.0,1.0,54,0.00,,,0.00,0,Wunderground v.1.15,2013-12-25 06:18:00,
2013-12-25 01:24:00,22.3,8.2,30.47,NW,319,1.0,3.0,54,0.00,,,0.00,0,Wunderground v.1.15,2013-12-25 06:24:00,
2013-12-25 01:30:00,22.2,8.1,30.48,WNW,295,0.0,2.0,54,0.00,,,0.00,0,Wunderground v.1.15,2013-12-25 06:30:00,
2013-12-25 01:35:00,22.2,8.5,30.48,NW,325,0.0,2.0,55,0.00,,,0.00,0,Wunderground v.1.15,2013-12-25 06:35:00,
2013-12-25 01:41:00,22.1,8.4,30.48,WNW,299,0.0,1.0,55,0.00,,,0.00,0,Wunderground v.1.15,2013-12-25 06:41:00,
2013-12-25 01:46:00,22.1,8.4,30.48,NW,306,0.0,9.0,55,0.00,,,0.00,0,Wunderground v.1.15,2013-12-25 06:46:00,
2013-12-25 01:51:00,22.1,8.4,30.49,WSW,257,0.0,1.0,55,0.00,,,0.00,0,Wunderground v.1.15,2013-12-25 06:51:00,
2013-12-25 01:57:00,22.1,8.8,30.49,WNW,286,0.0,1.0,56,0.00,,,0.00,0,Wunderground v.1.15,2013-12-25 06:57:00,
2013-12-25 02:02:00,22.0,8.3,30.49,NW,315,0.0,6.0,55,0.00,,,0.00,0,Wunderground v.1.15,2013-12-25 07:02:00,
2013-12-25 02:07:00,22.0,8.3,30.49,NW,314,0.0,11.0,55,0.00,,,0.00,0,Wunderground v.1.15,2013-12-25 07:07:00,
2013-12-25 02:12:00,21.9,8.6,30.49,WNW,298,9.0,10.0,56,0.00,,,0.00,0,Wunderground v.1.15,2013-12-25 07:12:00,
2013-12-25 02:17:00,21.9,8.6,30.49,North,355,0.0,10.0,56,0.00,,,0.00,0,Wunderground v.1.15,2013-12-25 07:17:00,
2013-12-25 02:20:00,21.9,8.6,30.50,WNW,292,0.0,1.0,56,0.00,,,0.00,0,Wunderground v.1.15,2013-12-25 07:20:00,
2013-12-25 02:25:00,21.8,8.9,30.50,NW,306,0.0,1.0,57,0.00,,,0.00,0,Wunderground v.1.15,2013-12-25 07:25:00,
2013-12-25 02:30:00,21.8,8.9,30.50,WNW,294,0.0,1.0,57,0.00,,,0.00,0,Wunderground v.1.15,2013-12-25 07:30:00,
2013-12-25 02:35:00,21.7,9.2,30.50,NW,312,0.0,7.0,58,0.00,,,0.00,0,Wunderground v.1.15,2013-12-25 07:35:00,
2013-12-25 02:40:00,21.7,8.8,30.51,NW,310,0.0,0.0,57,0.00,,,0.00,0,Wunderground v.1.15,2013-12-25 07:40:00,
2013-12-25 02:45:00,21.6,8.7,30.51,NW,315,0.0,0.0,57,0.00,,,0.00,0,Wunderground v.1.15,2013-12-25 07:45:00,
2013-12-25 02:51:00,21.6,8.7,30.51,NW,313,0.0,0.0,57,0.00,,,0.00,0,Wunderground v.1.15,2013-12-25 07:51:00,
2013-12-25 02:56:00,21.5,8.6,30.51,NW,320,0.0,5.0,57,0.00,,,0.00,0,Wunderground v.1.15,2013-12-25 07:56:00,
2013-12-25 03:01:00,21.5,9.0,30.51,NW,325,0.0,1.0,58,0.00,,,0.00,0,Wunderground v.1.15,2013-12-25 08:01:00,
2013-12-25 03:06:00,21.5,9.0,30.52,West,281,0.0,1.0,58,0.00,,,0.00,0,Wunderground v.1.15,2013-12-25 08:06:00,
2013-12-25 03:11:00,21.4,8.9,30.51,NW,325,3.0,3.0,58,0.00,,,0.00,0,Wunderground v.1.15,2013-12-25 08:11:00,
2013-12-25 03:16:00,21.3,8.8,30.51,WNW,292,0.0,3.0,58,0.00,,,0.00,0,Wunderground v.1.15,2013-12-25 08:16:00,
2013-12-25 03:21:00,21.3,9.2,30.51,NW,304,0.0,0.0,59,0.00,,,0.00,0,Wunderground v.1.15,2013-12-25 08:21:00,
2013-12-25 03:26:00,21.2,9.1,30.51,NNW,328,0.0,8.0,59,0.00,,,0.00,0,Wunderground v.1.15,2013-12-25 08:26:00,
2013-12-25 03:31:00,21.2,8.3,30.50,NW,311,0.0,1.0,57,0.00,,,0.00,0,Wunderground v.1.15,2013-12-25 08:31:00,
2013-12-25 03:36:00,21.1,8.6,30.50,NW,325,2.0,4.0,58,0.00,,,0.00,0,Wunderground v.1.15,2013-12-25 08:36:00,
2013-12-25 03:41:00,21.1,8.6,30.50,West,279,0.0,0.0,58,0.00,,,0.00,0,Wunderground v.1.15,2013-12-25 08:41:00,
2013-12-25 03:46:00,21.0,8.5,30.51,NNW,338,0.0,1.0,58,0.00,,,0.00,0,Wunderground v.1.15,2013-12-25 08:46:00,
2013-12-25 03:51:00,21.0,8.5,30.51,WNW,287,0.0,0.0,58,0.00,,,0.00,0,Wunderground v.1.15,2013-12-25 08:51:00,
2013-12-25 03:56:00,20.9,8.8,30.50,NW,307,0.0,0.0,59,0.00,,,0.00,0,Wunderground v.1.15,2013-12-25 08:56:00,
2013-12-25 04:01:00,20.9,8.4,30.51,North,360,0.0,0.0,58,0.00,,,0.00,0,Wunderground v.1.15,2013-12-25 09:01:00,
2013-12-25 04:06:00,20.9,8.4,30.51,WNW,288,0.0,0.0,58,0.00,,,0.00,0,Wunderground v.1.15,2013-12-25 09:06:00,
2013-12-25 04:11:00,20.8,8.3,30.50,NW,312,0.0,0.0,58,0.00,,,0.00,0,Wunderground v.1.15,2013-12-25 09:11:00,
2013-12-25 04:16:00,20.8,8.3,30.50,NW,310,0.0,0.0,58,0.00,,,0.00,0,Wunderground v.1.15,2013-12-25 09:16:00,
2013-12-25 04:21:00,20.7,8.6,30.50,NW,309,0.0,0.0,59,0.00,,,0.00,0,Wunderground v.1.15,2013-12-25 09:21:00,
2013-12-25 04:26:00,20.7,8.6,30.50,WNW,288,0.0,0.0,59,0.00,,,0.00,0,Wunderground v.1.15,2013-12-25 09:26:00,
2013-12-25 04:31:00,20.7,8.6,30.50,NW,306,0.0,0.0,59,0.00,,,0.00,0,Wunderground v.1.15,2013-12-25 09:31:00,
2013-12-25 04:36:00,20.6,8.5,30.50,WNW,296,0.0,0.0,59,0.00,,,0.00,0,Wunderground v.1.15,2013-12-25 09:36:00,
2013-12-25 04:41:00,20.5,8.4,30.49,NW,322,0.0,0.0,59,0.00,,,0.00,0,Wunderground v.1.15,2013-12-25 09:41:00,
2013-12-25 04:46:00,20.5,8.4,30.50,NW,311,0.0,0.0,59,0.00,,,0.00,0,Wunderground v.1.15,2013-12-25 09:46:00,
2013-12-25 04:51:00,20.4,8.3,30.50,NNW,338,0.0,0.0,59,0.00,,,0.00,0,Wunderground v.1.15,2013-12-25 09:51:00,
2013-12-25 04:56:00,20.4,8.3,30.50,WNW,298,0.0,5.0,59,0.00,,,0.00,0,Wunderground v.1.15,2013-12-25 09:56:00,
2013-12-25 05:01:00,20.4,8.3,30.51,NNW,329,0.0,0.0,59,0.00,,,0.00,0,Wunderground v.1.15,2013-12-25 10:01:00,
2013-12-25 05:06:00,20.4,8.3,30.51,WNW,300,0.0,8.0,59,0.00,,,0.00,0,Wunderground v.1.15,2013-12-25 10:06:00,
2013-12-25 05:11:00,20.4,8.3,30.51,NW,321,0.0,9.0,59,0.00,,,0.00,0,Wunderground v.1.15,2013-12-25 10:11:00,
2013-12-25 05:16:00,20.4,8.0,30.52,NW,313,0.0,9.0,58,0.00,,,0.00,0,Wunderground v.1.15,2013-12-25 10:16:00,
2013-12-25 05:21:00,20.4,8.3,30.52,WNW,300,0.0,0.0,59,0.00,,,0.00,0,Wunderground v.1.15,2013-12-25 10:21:00,
2013-12-25 05:26:00,20.4,8.3,30.52,NNW,331,0.0,6.0,59,0.00,,,0.00,0,Wunderground v.1.15,2013-12-25 10:26:00,
2013-12-25 05:31:00,20.4,8.0,30.52,WNW,292,0.0,0.0,58,0.00,,,0.00,0,Wunderground v.1.15,2013-12-25 10:31:00,
2013-12-25 05:36:00,20.4,8.3,30.52,WNW,299,0.0,6.0,59,0.00,,,0.00,0,Wunderground v.1.15,2013-12-25 10:36:00,
2013-12-25 05:41:00,20.4,8.3,30.52,WNW,293,0.0,0.0,59,0.00,,,0.00,0,Wunderground v.1.15,2013-12-25 10:41:00,
2013-12-25 05:46:00,20.3,8.2,30.53,NW,307,3.0,6.0,59,0.00,,,0.00,0,Wunderground v.1.15,2013-12-25 10:46:00,
2013-12-25 05:51:00,20.3,8.2,30.53,NW,304,0.0,1.0,59,0.00,,,0.00,0,Wunderground v.1.15,2013-12-25 10:51:00,
2013-12-25 05:56:00,20.3,8.2,30.53,NNW,331,0.0,1.0,59,0.00,,,0.00,0,Wunderground v.1.15,2013-12-25 10:56:00,
2013-12-25 06:01:00,20.3,8.2,30.53,NW,306,0.0,0.0,59,0.00,,,0.00,0,Wunderground v.1.15,2013-12-25 11:01:00,
2013-12-25 06:06:00,20.3,8.6,30.53,WNW,284,0.0,0.0,60,0.00,,,0.00,0,Wunderground v.1.15,2013-12-25 11:06:00,
2013-12-25 06:11:00,20.2,8.1,30.53,NW,322,0.0,0.0,59,0.00,,,0.00,0,Wunderground v.1.15,2013-12-25 11:11:00,
2013-12-25 06:16:00,20.2,8.5,30.53,WNW,302,0.0,8.0,60,0.00,,,0.00,0,Wunderground v.1.15,2013-12-25 11:16:00,
2013-12-25 06:21:00,20.2,8.5,30.53,NW,304,0.0,0.0,60,0.00,,,0.00,0,Wunderground v.1.15,2013-12-25 11:21:00,
2013-12-25 06:26:00,20.2,8.5,30.53,WNW,300,0.0,1.0,60,0.00,,,0.00,0,Wunderground v.1.15,2013-12-25 11:26:00,
2013-12-25 06:31:00,20.2,8.5,30.54,NW,323,0.0,3.0,60,0.00,,,0.00,0,Wunderground v.1.15,2013-12-25 11:31:00,
2013-12-25 06:36:00,20.2,8.5,30.54,NW,309,0.0,6.0,60,0.00,,,0.00,0,Wunderground v.1.15,2013-12-25 11:36:00,
2013-12-25 06:41:00,20.2,8.5,30.54,NNW,327,0.0,8.0,60,0.00,,,0.00,0,Wunderground v.1.15,2013-12-25 11:41:00,
2013-12-25 06:46:00,20.1,8.4,30.53,NNW,348,0.0,8.0,60,0.00,,,0.00,0,Wunderground v.1.15,2013-12-25 11:46:00,
2013-12-25 06:51:00,20.1,8.4,30.54,NNW,342,0.0,5.0,60,0.00,,,0.00,0,Wunderground v.1.15,2013-12-25 11:51:00,
2013-12-25 06:56:00,20.1,8.4,30.55,North,350,0.0,5.0,60,0.00,,,0.00,0,Wunderground v.1.15,2013-12-25 11:56:00,
2013-12-25 07:02:00,20.1,8.4,30.54,NW,313,0.0,0.0,60,0.00,,,0.00,0,Wunderground v.1.15,2013-12-25 12:02:00,
2013-12-25 07:07:00,20.1,8.4,30.55,NW,325,0.0,2.0,60,0.00,,,0.00,0,Wunderground v.1.15,2013-12-25 12:07:00,
2013-12-25 07:12:00,20.0,8.3,30.54,NW,309,0.0,0.0,60,0.00,,,0.00,0,Wunderground v.1.15,2013-12-25 12:12:00,
2013-12-25 07:17:00,20.0,8.3,30.54,WNW,292,0.0,3.0,60,0.00,,,0.00,0,Wunderground v.1.15,2013-12-25 12:17:00,
2013-12-25 07:22:00,19.9,8.2,30.54,WNW,292,0.0,1.0,60,0.00,,,0.00,0,Wunderground v.1.15,2013-12-25 12:22:00,
2013-12-25 07:27:00,19.9,8.2,30.54,WNW,295,0.0,1.0,60,0.00,,,0.00,5,Wunderground v.1.15,2013-12-25 12:27:00,
2013-12-25 07:32:00,19.9,8.2,30.54,NW,316,0.0,6.0,60,0.00,,,0.00,7,Wunderground v.1.15,2013-12-25 12:32:00,
2013-12-25 07:37:00,19.8,8.1,30.54,NW,304,0.0,6.0,60,0.00,,,0.00,9,Wunderground v.1.15,2013-12-25 12:37:00,
2013-12-25 07:42:00,19.8,8.1,30.55,WNW,290,0.0,7.0,60,0.00,,,0.00,11,Wunderground v.1.15,2013-12-25 12:42:00,
2013-12-25 07:47:00,19.8,8.1,30.55,NW,306,0.0,7.0,60,0.00,,,0.00,14,Wunderground v.1.15,2013-12-25 12:47:00,
2013-12-25 07:52:00,19.8,8.1,30.55,WNW,294,0.0,1.0,60,0.00,,,0.00,18,Wunderground v.1.15,2013-12-25 12:52:00,
2013-12-25 07:57:00,19.8,8.5,30.55,NNW,333,0.0,5.0,61,0.00,,,0.00,18,Wunderground v.1.15,2013-12-25 12:57:00,
2013-12-25 08:02:00,19.8,8.5,30.55,NW,307,0.0,3.0,61,0.00,,,0.00,25,Wunderground v.1.15,2013-12-25 13:02:00,
2013-12-25 08:07:00,19.9,9.0,30.56,NNW,338,0.0,3.0,62,0.00,,,0.00,25,Wunderground v.1.15,2013-12-25 13:07:00,
2013-12-25 08:12:00,20.0,8.7,30.55,WNW,302,0.0,0.0,61,0.00,,,0.00,35,Wunderground v.1.15,2013-12-25 13:12:00,
2013-12-25 08:17:00,20.0,8.7,30.55,WNW,282,0.0,7.0,61,0.00,,,0.00,53,Wunderground v.1.15,2013-12-25 13:17:00,
2013-12-25 08:22:00,20.2,8.9,30.55,NW,315,0.0,0.0,61,0.00,,,0.00,63,Wunderground v.1.15,2013-12-25 13:22:00,
2013-12-25 08:27:00,20.4,9.1,30.55,WNW,302,0.0,8.0,61,0.00,,,0.00,86,Wunderground v.1.15,2013-12-25 13:27:00,
2013-12-25 08:32:00,20.5,8.8,30.56,NNW,327,0.0,3.0,60,0.00,,,0.00,91,Wunderground v.1.15,2013-12-25 13:32:00,
2013-12-25 08:37:00,20.6,8.9,30.55,WNW,303,0.0,10.0,60,0.00,,,0.00,113,Wunderground v.1.15,2013-12-25 13:37:00,
2013-12-25 08:42:00,20.8,8.7,30.56,NW,326,0.0,4.0,59,0.00,,,0.00,107,Wunderground v.1.15,2013-12-25 13:42:00,
2013-12-25 08:47:00,20.9,9.2,30.56,NW,304,0.0,4.0,60,0.00,,,0.00,125,Wunderground v.1.15,2013-12-25 13:47:00,
2013-12-25 08:52:00,21.0,9.3,30.56,NW,306,0.0,5.0,60,0.00,,,0.00,113,Wunderground v.1.15,2013-12-25 13:52:00,
2013-12-25 08:57:00,21.2,9.1,30.56,WNW,301,0.0,5.0,59,0.00,,,0.00,149,Wunderground v.1.15,2013-12-25 13:57:00,
2013-12-25 09:02:00,21.3,8.4,30.56,NW,317,0.0,8.0,57,0.00,,,0.00,160,Wunderground v.1.15,2013-12-25 14:02:00,
2013-12-25 09:07:00,21.5,8.6,30.57,NNW,333,0.0,8.0,57,0.00,,,0.00,47,Wunderground v.1.15,2013-12-25 14:07:00,
2013-12-25 09:12:00,21.6,9.1,30.56,NNW,338,0.0,1.0,58,0.00,,,0.00,134,Wunderground v.1.15,2013-12-25 14:12:00,
2013-12-25 09:17:00,21.7,8.8,30.56,NW,309,0.0,1.0,57,0.00,,,0.00,199,Wunderground v.1.15,2013-12-25 14:17:00,
2013-12-25 09:22:00,21.9,9.4,30.57,NW,312,0.0,0.0,58,0.00,,,0.00,202,Wunderground v.1.15,2013-12-25 14:22:00,
2013-12-25 09:27:00,22.1,9.2,30.58,North,350,0.0,6.0,57,0.00,,,0.00,74,Wunderground v.1.15,2013-12-25 14:27:00,
2013-12-25 09:32:00,22.2,8.9,30.58,WNW,294,0.0,0.0,56,0.00,,,0.00,60,Wunderground v.1.15,2013-12-25 14:32:00,
2013-12-25 09:37:00,22.5,9.5,30.57,WNW,298,0.0,0.0,57,0.00,,,0.00,79,Wunderground v.1.15,2013-12-25 14:37:00,
2013-12-25 09:42:00,22.7,9.7,30.57,NW,322,0.0,0.0,57,0.00,,,0.00,229,Wunderground v.1.15,2013-12-25 14:42:00,
2013-12-25 09:47:00,22.8,9.4,30.57,NW,315,0.0,0.0,56,0.00,,,0.00,200,Wunderground v.1.15,2013-12-25 14:47:00,
2013-12-25 09:52:00,23.1,9.7,30.57,North,10,0.0,0.0,56,0.00,,,0.00,250,Wunderground v.1.15,2013-12-25 14:52:00,
2013-12-25 09:57:00,23.3,9.5,30.57,ENE,76,0.0,0.0,55,0.00,,,0.00,185,Wunderground v.1.15,2013-12-25 14:57:00,
2013-12-25 10:02:00,23.5,9.7,30.58,NNW,340,0.0,0.0,55,0.00,,,0.00,241,Wunderground v.1.15,2013-12-25 15:02:00,
2013-12-25 10:07:00,23.6,9.4,30.58,North,360,0.0,0.0,54,0.00,,,0.00,186,Wunderground v.1.15,2013-12-25 15:07:00,
2013-12-25 10:12:00,23.9,9.6,30.58,NW,315,0.0,0.0,54,0.00,,,0.00,237,Wunderground v.1.15,2013-12-25 15:12:00,
2013-12-25 10:17:00,24.0,9.7,30.57,NW,317,0.0,0.0,54,0.00,,,0.00,295,Wunderground v.1.15,2013-12-25 15:17:00,
2013-12-25 10:22:00,24.3,10.0,30.57,NW,317,0.0,0.0,54,0.00,,,0.00,197,Wunderground v.1.15,2013-12-25 15:22:00,
2013-12-25 10:27:00,24.5,9.8,30.57,West,265,0.0,0.0,53,0.00,,,0.00,243,Wunderground v.1.15,2013-12-25 15:27:00,
2013-12-25 10:32:00,24.5,9.4,30.57,NW,322,0.0,0.0,52,0.00,,,0.00,301,Wunderground v.1.15,2013-12-25 15:32:00,
2013-12-25 10:37:00,24.6,10.3,30.56,NNW,344,0.0,0.0,54,0.00,,,0.00,271,Wunderground v.1.15,2013-12-25 15:37:00,
2013-12-25 10:42:00,24.6,10.3,30.57,NNE,15,0.0,0.0,54,0.00,,,0.00,343,Wunderground v.1.15,2013-12-25 15:42:00,
2013-12-25 10:47:00,24.8,10.1,30.56,NNE,26,0.0,0.0,53,0.00,,,0.00,267,Wunderground v.1.15,2013-12-25 15:47:00,
2013-12-25 10:52:00,24.8,10.5,30.57,NNW,331,0.0,0.0,54,0.00,,,0.00,355,Wunderground v.1.15,2013-12-25 15:52:00,
2013-12-25 10:57:00,24.9,9.7,30.56,West,262,0.0,0.0,52,0.00,,,0.00,304,Wunderground v.1.15,2013-12-25 15:57:00,
2013-12-25 11:02:00,25.0,10.3,30.56,West,261,0.0,0.0,53,0.00,,,0.00,295,Wunderground v.1.15,2013-12-25 16:02:00,
2013-12-25 11:07:00,25.2,10.4,30.55,WSW,244,0.0,0.0,53,0.00,,,0.00,376,Wunderground v.1.15,2013-12-25 16:07:00,
2013-12-25 11:12:00,25.3,9.7,30.55,WSW,243,0.0,0.0,51,0.00,,,0.00,378,Wunderground v.1.15,2013-12-25 16:12:00,
2013-12-25 11:17:00,25.5,10.3,30.55,SE,130,0.0,0.0,52,0.00,,,0.00,338,Wunderground v.1.15,2013-12-25 16:17:00,
2013-12-25 11:22:00,25.7,10.5,30.55,NW,325,0.0,5.0,52,0.00,,,0.00,383,Wunderground v.1.15,2013-12-25 16:22:00,
2013-12-25 11:27:00,25.8,10.6,30.55,ENE,61,0.0,5.0,52,0.00,,,0.00,385,Wunderground v.1.15,2013-12-25 16:27:00,
2013-12-25 11:32:00,25.9,10.2,30.55,NE,53,0.0,0.0,51,0.00,,,0.00,388,Wunderground v.1.15,2013-12-25 16:32:00,
2013-12-25 11:37:00,26.3,10.6,30.55,NE,54,0.0,0.0,51,0.00,,,0.00,394,Wunderground v.1.15,2013-12-25 16:37:00,
2013-12-25 11:42:00,26.5,10.3,30.55,West,265,0.0,3.0,50,0.00,,,0.00,397,Wunderground v.1.15,2013-12-25 16:42:00,
2013-12-25 11:47:00,26.5,9.9,30.55,WSW,257,0.0,3.0,49,0.00,,,0.00,403,Wunderground v.1.15,2013-12-25 16:47:00,
2013-12-25 11:52:00,26.7,10.1,30.55,SW,219,0.0,3.0,49,0.00,,,0.00,404,Wunderground v.1.15,2013-12-25 16:52:00,
2013-12-25 11:57:00,26.8,10.2,30.54,SW,219,0.0,3.0,49,0.00,,,0.00,401,Wunderground v.1.15,2013-12-25 16:57:00,
2013-12-25 12:02:00,26.8,9.7,30.53,SW,219,0.0,0.0,48,0.00,,,0.00,403,Wunderground v.1.15,2013-12-25 17:02:00,
2013-12-25 12:07:00,27.1,10.4,30.52,SW,222,4.0,4.0,49,0.00,,,0.00,406,Wunderground v.1.15,2013-12-25 17:07:00,
2013-12-25 12:12:00,27.3,9.7,30.52,SSW,206,0.0,2.0,47,0.00,,,0.00,408,Wunderground v.1.15,2013-12-25 17:12:00,
2013-12-25 12:17:00,27.5,9.9,30.51,SSW,205,0.0,3.0,47,0.00,,,0.00,406,Wunderground v.1.15,2013-12-25 17:17:00,
2013-12-25 12:22:00,27.8,9.7,30.51,SSW,203,0.0,0.0,46,0.00,,,0.00,408,Wunderground v.1.15,2013-12-25 17:22:00,
2013-12-25 12:27:00,28.0,9.4,30.51,SSW,203,0.0,0.0,45,0.00,,,0.00,404,Wunderground v.1.15,2013-12-25 17:27:00,
2013-12-25 12:32:00,27.8,9.7,30.51,SSW,210,0.0,0.0,46,0.00,,,0.00,404,Wunderground v.1.15,2013-12-25 17:32:00,
2013-12-25 12:37:00,27.7,9.6,30.51,South,190,0.0,3.0,46,0.00,,,0.00,403,Wunderground v.1.15,2013-12-25 17:37:00,
2013-12-25 12:42:00,27.9,10.2,30.50,South,190,0.0,0.0,47,0.00,,,0.00,397,Wunderground v.1.15,2013-12-25 17:42:00,
2013-12-25 12:47:00,28.2,11.0,30.50,South,187,0.0,0.0,48,0.00,,,0.00,392,Wunderground v.1.15,2013-12-25 17:47:00,
2013-12-25 12:52:00,28.7,10.0,30.50,South,188,0.0,2.0,45,0.00,,,0.00,392,Wunderground v.1.15,2013-12-25 17:52:00,
2013-12-25 12:57:00,29.0,10.8,30.50,South,183,2.0,3.0,46,0.00,,,0.00,387,Wunderground v.1.15,2013-12-25 17:57:00,
2013-12-25 13:02:00,28.9,9.2,30.50,WNW,300,0.0,3.0,43,0.00,,,0.00,385,Wunderground v.1.15,2013-12-25 18:02:00,
2013-12-25 13:07:00,28.8,10.1,30.50,North,11,0.0,3.0,45,0.00,,,0.00,376,Wunderground v.1.15,2013-12-25 18:07:00,
2013-12-25 13:12:00,28.8,9.6,30.49,NW,304,0.0,4.0,44,0.00,,,0.00,376,Wunderground v.1.15,2013-12-25 18:12:00,
2013-12-25 13:17:00,28.9,10.2,30.49,NW,307,0.0,4.0,45,0.00,,,0.00,373,Wunderground v.1.15,2013-12-25 18:17:00,
2013-12-25 13:22:00,29.2,9.4,30.49,WNW,302,0.0,1.0,43,0.00,,,0.00,369,Wunderground v.1.15,2013-12-25 18:22:00,
2013-12-25 13:27:00,29.2,8.9,30.49,WSW,244,0.0,2.0,42,0.00,,,0.00,364,Wunderground v.1.15,2013-12-25 18:27:00,
2013-12-25 13:32:00,29.5,9.2,30.49,SSW,209,0.0,3.0,42,0.00,,,0.00,360,Wunderground v.1.15,2013-12-25 18:32:00,
2013-12-25 13:37:00,29.9,8.5,30.49,West,263,0.0,4.0,40,0.00,,,0.00,355,Wunderground v.1.15,2013-12-25 18:37:00,
2013-12-25 13:42:00,29.9,9.6,30.49,SW,234,0.0,0.0,42,0.00,,,0.00,346,Wunderground v.1.15,2013-12-25 18:42:00,
2013-12-25 13:47:00,30.1,9.2,30.48,SW,236,0.0,0.0,41,0.00,,,0.00,341,Wunderground v.1.15,2013-12-25 18:47:00,
2013-12-25 13:52:00,30.1,9.7,30.48,SW,217,0.0,0.0,42,0.00,,,0.00,332,Wunderground v.1.15,2013-12-25 18:52:00,
2013-12-25 13:57:00,30.1,9.7,30.48,SW,217,0.0,0.0,42,0.00,,,0.00,327,Wunderground v.1.15,2013-12-25 18:57:00,
2013-12-25 14:02:00,30.3,9.9,30.49,WNW,296,3.0,4.0,42,0.00,,,0.00,320,Wunderground v.1.15,2013-12-25 19:02:00,
2013-12-25 14:07:00,30.2,9.8,30.48,WNW,300,0.0,4.0,42,0.00,,,0.00,311,Wunderground v.1.15,2013-12-25 19:07:00,
2013-12-25 14:12:00,30.4,10.5,30.48,WNW,296,0.0,0.0,43,0.00,,,0.00,304,Wunderground v.1.15,2013-12-25 19:12:00,
2013-12-25 14:17:00,30.5,9.6,30.48,WNW,296,0.0,0.0,41,0.00,,,0.00,295,Wunderground v.1.15,2013-12-25 19:17:00,
2013-12-25 14:22:00,30.4,10.0,30.48,WNW,296,0.0,0.0,42,0.00,,,0.00,287,Wunderground v.1.15,2013-12-25 19:22:00,
2013-12-25 14:27:00,30.4,10.0,30.48,South,182,0.0,0.0,42,0.00,,,0.00,274,Wunderground v.1.15,2013-12-25 19:27:00,
2013-12-25 14:32:00,30.4,10.0,30.48,SE,142,0.0,0.0,42,0.00,,,0.00,265,Wunderground v.1.15,2013-12-25 19:32:00,
2013-12-25 14:37:00,30.7,9.7,30.48,SSE,147,0.0,2.0,41,0.00,,,0.00,257,Wunderground v.1.15,2013-12-25 19:37:00,
2013-12-25 14:42:00,30.8,9.8,30.48,SSE,149,0.0,0.0,41,0.00,,,0.00,248,Wunderground v.1.15,2013-12-25 19:42:00,
2013-12-25 14:44:00,30.8,9.8,30.47,East,93,0.0,0.0,41,0.00,,,0.00,244,Wunderground v.1.15,2013-12-25 19:44:00,
2013-12-25 14:49:00,30.8,10.9,30.48,East,99,0.0,3.0,43,0.00,,,0.00,236,Wunderground v.1.15,2013-12-25 19:49:00,
2013-12-25 14:54:00,30.9,11.0,30.47,East,100,0.0,4.0,43,0.00,,,0.00,223,Wunderground v.1.15,2013-12-25 19:54:00,
2013-12-25 14:59:00,30.9,11.0,30.47,East,99,0.0,4.0,43,0.00,,,0.00,213,Wunderground v.1.15,2013-12-25 19:59:00,
2013-12-25 15:04:00,31.0,10.0,30.48,South,183,0.0,4.0,41,0.00,,,0.00,206,Wunderground v.1.15,2013-12-25 20:04:00,
2013-12-25 15:09:00,31.0,10.0,30.48,SSW,207,4.0,4.0,41,0.00,,,0.00,200,Wunderground v.1.15,2013-12-25 20:09:00,
2013-12-25 15:14:00,30.9,10.5,30.47,SSW,202,4.0,7.0,42,0.00,,,0.00,162,Wunderground v.1.15,2013-12-25 20:14:00,
2013-12-25 15:19:00,30.9,11.0,30.47,SSW,207,4.0,7.0,43,0.00,,,0.00,32,Wunderground v.1.15,2013-12-25 20:19:00,
2013-12-25 15:24:00,30.9,10.5,30.47,SE,134,0.0,4.0,42,0.00,,,0.00,32,Wunderground v.1.15,2013-12-25 20:24:00,
2013-12-25 15:29:00,30.9,10.5,30.47,SE,138,0.0,4.0,42,0.00,,,0.00,46,Wunderground v.1.15,2013-12-25 20:29:00,
2013-12-25 15:34:00,30.9,11.0,30.48,SE,135,0.0,4.0,43,0.00,,,0.00,28,Wunderground v.1.15,2013-12-25 20:34:00,
2013-12-25 15:39:00,30.9,10.5,30.48,SE,133,0.0,5.0,42,0.00,,,0.00,28,Wunderground v.1.15,2013-12-25 20:39:00,
2013-12-25 15:44:00,30.9,10.5,30.47,SE,135,0.0,1.0,42,0.00,,,0.00,28,Wunderground v.1.15,2013-12-25 20:44:00,
2013-12-25 15:49:00,30.8,9.8,30.48,SE,134,0.0,1.0,41,0.00,,,0.00,35,Wunderground v.1.15,2013-12-25 20:49:00,
2013-12-25 15:54:00,30.9,9.4,30.47,SSW,202,0.0,2.0,40,0.00,,,0.00,26,Wunderground v.1.15,2013-12-25 20:54:00,
2013-12-25 15:59:00,31.0,10.0,30.48,SSW,200,0.0,2.0,41,0.00,,,0.00,25,Wunderground v.1.15,2013-12-25 20:59:00,
2013-12-25 16:04:00,30.9,8.2,30.47,SSW,205,2.0,4.0,38,0.00,,,0.00,23,Wunderground v.1.15,2013-12-25 21:04:00,
2013-12-25 16:09:00,30.6,7.4,30.47,SSW,212,0.0,8.0,37,0.00,,,0.00,23,Wunderground v.1.15,2013-12-25 21:09:00,
2013-12-25 16:14:00,30.5,8.4,30.47,SSW,211,0.0,2.0,39,0.00,,,0.00,21,Wunderground v.1.15,2013-12-25 21:14:00,
2013-12-25 16:19:00,30.5,9.6,30.47,SW,214,0.0,6.0,41,0.00,,,0.00,28,Wunderground v.1.15,2013-12-25 21:19:00,
2013-12-25 16:24:00,30.5,9.0,30.47,SSW,210,0.0,5.0,40,0.00,,,0.00,35,Wunderground v.1.15,2013-12-25 21:24:00,
2013-12-25 16:29:00,30.4,8.9,30.48,South,181,0.0,0.0,40,0.00,,,0.00,25,Wunderground v.1.15,2013-12-25 21:29:00,
2013-12-25 16:34:00,30.3,9.4,30.47,SW,217,0.0,5.0,41,0.00,,,0.00,18,Wunderground v.1.15,2013-12-25 21:34:00,
2013-12-25 16:39:00,30.1,9.7,30.47,SSW,208,0.0,1.0,42,0.00,,,0.00,14,Wunderground v.1.15,2013-12-25 21:39:00,
2013-12-25 16:44:00,29.8,9.5,30.47,SSW,210,0.0,3.0,42,0.00,,,0.00,9,Wunderground v.1.15,2013-12-25 21:44:00,
2013-12-25 16:49:00,29.7,10.4,30.47,SSW,211,0.0,0.0,44,0.00,,,0.00,7,Wunderground v.1.15,2013-12-25 21:49:00,
2013-12-25 16:54:00,29.6,10.3,30.47,SSW,210,0.0,0.0,44,0.00,,,0.00,5,Wunderground v.1.15,2013-12-25 21:54:00,
2013-12-25 16:59:00,29.5,10.7,30.47,SSW,209,0.0,0.0,45,0.00,,,0.00,0,Wunderground v.1.15,2013-12-25 21:59:00,
2013-12-25 17:05:00,29.3,11.1,30.47,SSW,207,0.0,4.0,46,0.00,,,0.00,0,Wunderground v.1.15,2013-12-25 22:05:00,
2013-12-25 17:10:00,29.2,11.4,30.46,SSW,207,0.0,0.0,47,0.00,,,0.00,0,Wunderground v.1.15,2013-12-25 22:10:00,
2013-12-25 17:15:00,29.1,11.8,30.47,SSW,209,0.0,0.0,48,0.00,,,0.00,0,Wunderground v.1.15,2013-12-25 22:15:00,
2013-12-25 17:20:00,29.0,11.3,30.47,SSW,207,0.0,0.0,47,0.00,,,0.00,0,Wunderground v.1.15,2013-12-25 22:20:00,
2013-12-25 17:25:00,28.9,11.6,30.47,SSW,208,0.0,0.0,48,0.00,,,0.00,0,Wunderground v.1.15,2013-12-25 22:25:00,
2013-12-25 17:30:00,28.8,11.6,30.47,SSW,209,0.0,0.0,48,0.00,,,0.00,0,Wunderground v.1.15,2013-12-25 22:30:00,
2013-12-25 17:36:00,28.7,11.9,30.47,SSW,209,0.0,0.0,49,0.00,,,0.00,0,Wunderground v.1.15,2013-12-25 22:36:00,
2013-12-25 17:40:00,28.7,11.9,30.46,SSW,209,0.0,0.0,49,0.00,,,0.00,0,Wunderground v.1.15,2013-12-25 22:40:00,
2013-12-25 17:45:00,28.7,11.9,30.47,SSW,209,0.0,0.0,49,0.00,,,0.00,0,Wunderground v.1.15,2013-12-25 22:45:00,
2013-12-25 17:50:00,28.6,12.3,30.46,SSW,209,0.0,0.0,50,0.00,,,0.00,0,Wunderground v.1.15,2013-12-25 22:50:00,
2013-12-25 17:56:00,28.5,12.2,30.46,SSW,209,0.0,0.0,50,0.00,,,0.00,0,Wunderground v.1.15,2013-12-25 22:56:00,
2013-12-25 18:01:00,28.5,12.6,30.46,South,191,0.0,0.0,51,0.00,,,0.00,0,Wunderground v.1.15,2013-12-25 23:01:00,
2013-12-25 18:06:00,28.5,12.6,30.46,South,190,0.0,0.0,51,0.00,,,0.00,0,Wunderground v.1.15,2013-12-25 23:06:00,
2013-12-25 18:11:00,28.4,12.6,30.46,South,191,0.0,0.0,51,0.00,,,0.00,0,Wunderground v.1.15,2013-12-25 23:11:00,
2013-12-25 18:16:00,28.4,12.6,30.46,South,191,0.0,0.0,51,0.00,,,0.00,0,Wunderground v.1.15,2013-12-25 23:16:00,
2013-12-25 18:21:00,28.3,12.9,30.46,South,191,0.0,0.0,52,0.00,,,0.00,0,Wunderground v.1.15,2013-12-25 23:21:00,
2013-12-25 18:26:00,28.3,12.9,30.46,South,191,0.0,0.0,52,0.00,,,0.00,0,Wunderground v.1.15,2013-12-25 23:26:00,
2013-12-25 18:31:00,28.2,12.4,30.46,South,190,0.0,0.0,51,0.00,,,0.00,0,Wunderground v.1.15,2013-12-25 23:31:00,
2013-12-25 18:36:00,28.2,12.8,30.46,South,190,0.0,0.0,52,0.00,,,0.00,0,Wunderground v.1.15,2013-12-25 23:36:00,
2013-12-25 18:41:00,28.2,12.8,30.46,SSW,196,0.0,0.0,52,0.00,,,0.00,0,Wunderground v.1.15,2013-12-25 23:41:00,
2013-12-25 18:46:00,28.1,11.8,30.46,SSW,196,0.0,0.0,50,0.00,,,0.00,0,Wunderground v.1.15,2013-12-25 23:46:00,
2013-12-25 18:51:00,28.1,12.3,30.46,SSW,194,0.0,0.0,51,0.00,,,0.00,0,Wunderground v.1.15,2013-12-25 23:51:00,
2013-12-25 18:56:00,28.1,11.4,30.46,SSW,194,0.0,0.0,49,0.00,,,0.00,0,Wunderground v.1.15,2013-12-25 23:56:00,
2013-12-25 19:01:00,28.0,11.7,30.46,SSW,194,0.0,0.0,50,0.00,,,0.00,0,Wunderground v.1.15,2013-12-26 00:01:00,
2013-12-25 19:06:00,28.0,12.2,30.46,SSW,194,0.0,0.0,51,0.00,,,0.00,0,Wunderground v.1.15,2013-12-26 00:06:00,
2013-12-25 19:11:00,28.0,13.1,30.46,SSW,194,0.0,0.0,53,0.00,,,0.00,0,Wunderground v.1.15,2013-12-26 00:11:00,
2013-12-25 19:16:00,27.9,13.8,30.46,SSW,194,0.0,0.0,55,0.00,,,0.00,0,Wunderground v.1.15,2013-12-26 00:16:00,
2013-12-25 19:21:00,27.8,13.3,30.46,SSW,194,0.0,0.0,54,0.00,,,0.00,0,Wunderground v.1.15,2013-12-26 00:21:00,
2013-12-25 19:26:00,27.8,12.9,30.46,SSW,194,0.0,0.0,53,0.00,,,0.00,0,Wunderground v.1.15,2013-12-26 00:26:00,
2013-12-25 19:31:00,27.8,13.7,30.46,SSW,194,0.0,0.0,55,0.00,,,0.00,0,Wunderground v.1.15,2013-12-26 00:31:00,
2013-12-25 19:36:00,27.6,13.1,30.46,SSW,194,0.0,0.0,54,0.00,,,0.00,0,Wunderground v.1.15,2013-12-26 00:36:00,
2013-12-25 19:41:00,27.6,13.1,30.46,SSW,194,0.0,0.0,54,0.00,,,0.00,0,Wunderground v.1.15,2013-12-26 00:41:00,
2013-12-25 19:46:00,27.6,13.1,30.46,SSW,194,0.0,0.0,54,0.00,,,0.00,0,Wunderground v.1.15,2013-12-26 00:46:00,
2013-12-25 19:51:00,27.5,13.8,30.46,SSW,194,0.0,0.0,56,0.00,,,0.00,0,Wunderground v.1.15,2013-12-26 00:51:00,
2013-12-25 19:56:00,27.5,14.6,30.46,SSW,194,0.0,0.0,58,0.00,,,0.00,0,Wunderground v.1.15,2013-12-26 00:56:00,
2013-12-25 20:01:00,27.4,14.5,30.46,SSE,150,0.0,0.0,58,0.00,,,0.00,0,Wunderground v.1.15,2013-12-26 01:01:00,
2013-12-25 20:06:00,27.3,14.1,30.45,SSE,150,0.0,0.0,57,0.00,,,0.00,0,Wunderground v.1.15,2013-12-26 01:06:00,
2013-12-25 20:11:00,27.3,14.5,30.45,SSE,150,0.0,0.0,58,0.00,,,0.00,0,Wunderground v.1.15,2013-12-26 01:11:00,
2013-12-25 20:16:00,27.2,14.0,30.46,SE,141,0.0,0.0,57,0.00,,,0.00,0,Wunderground v.1.15,2013-12-26 01:16:00,
2013-12-25 20:21:00,27.2,14.0,30.45,SE,142,0.0,0.0,57,0.00,,,0.00,0,Wunderground v.1.15,2013-12-26 01:21:00,
2013-12-25 20:26:00,27.2,14.4,30.45,SE,143,0.0,0.0,58,0.00,,,0.00,0,Wunderground v.1.15,2013-12-26 01:26:00,
2013-12-25 20:31:00,27.2,14.8,30.45,SE,142,0.0,0.0,59,0.00,,,0.00,0,Wunderground v.1.15,2013-12-26 01:31:00,
2013-12-25 20:36:00,27.2,14.8,30.45,SE,143,0.0,0.0,59,0.00,,,0.00,0,Wunderground v.1.15,2013-12-26 01:36:00,
2013-12-25 20:41:00,27.2,15.1,30.45,SE,143,0.0,0.0,60,0.00,,,0.00,0,Wunderground v.1.15,2013-12-26 01:41:00,
2013-12-25 20:46:00,27.1,15.0,30.45,SE,142,0.0,0.0,60,0.00,,,0.00,0,Wunderground v.1.15,2013-12-26 01:46:00,
2013-12-25 20:51:00,27.1,15.0,30.45,SE,142,0.0,0.0,60,0.00,,,0.00,0,Wunderground v.1.15,2013-12-26 01:51:00,
2013-12-25 20:56:00,27.0,14.6,30.44,SE,145,0.0,0.0,59,0.00,,,0.00,0,Wunderground v.1.15,2013-12-26 01:56:00,
2013-12-25 21:01:00,27.0,14.6,30.44,South,177,0.0,1.0,59,0.00,,,0.00,0,Wunderground v.1.15,2013-12-26 02:01:00,
2013-12-25 21:06:00,26.9,14.1,30.44,South,171,0.0,1.0,58,0.00,,,0.00,0,Wunderground v.1.15,2013-12-26 02:06:00,
2013-12-25 21:11:00,26.9,14.1,30.44,SE,142,0.0,3.0,58,0.00,,,0.00,0,Wunderground v.1.15,2013-12-26 02:11:00,
2013-12-25 21:16:00,26.9,14.5,30.44,SSE,148,0.0,3.0,59,0.00,,,0.00,0,Wunderground v.1.15,2013-12-26 02:16:00,
2013-12-25 21:21:00,26.8,14.4,30.44,SSE,167,0.0,0.0,59,0.00,,,0.00,0,Wunderground v.1.15,2013-12-26 02:21:00,
2013-12-25 21:26:00,26.8,14.8,30.44,SSE,163,0.0,0.0,60,0.00,,,0.00,0,Wunderground v.1.15,2013-12-26 02:26:00,
2013-12-25 21:31:00,26.8,15.1,30.43,South,173,0.0,0.0,61,0.00,,,0.00,0,Wunderground v.1.15,2013-12-26 02:31:00,
2013-12-25 21:36:00,26.7,15.4,30.43,South,169,0.0,0.0,62,0.00,,,0.00,0,Wunderground v.1.15,2013-12-26 02:36:00,
2013-12-25 21:41:00,26.7,15.8,30.43,SE,134,0.0,0.0,63,0.00,,,0.00,0,Wunderground v.1.15,2013-12-26 02:41:00,
2013-12-25 21:46:00,26.7,16.1,30.43,SE,138,0.0,0.0,64,0.00,,,0.00,0,Wunderground v.1.15,2013-12-26 02:46:00,
2013-12-25 21:51:00,26.6,16.4,30.43,SE,144,0.0,0.0,65,0.00,,,0.00,0,Wunderground v.1.15,2013-12-26 02:51:00,
2013-12-25 21:56:00,26.6,16.8,30.42,SSE,163,0.0,0.0,66,0.00,,,0.00,0,Wunderground v.1.15,2013-12-26 02:56:00,
2013-12-25 22:01:00,26.6,17.1,30.42,SSE,163,0.0,0.0,67,0.00,,,0.00,0,Wunderground v.1.15,2013-12-26 03:01:00,
2013-12-25 22:06:00,26.5,17.0,30.42,SSE,161,0.0,0.0,67,0.00,,,0.00,0,Wunderground v.1.15,2013-12-26 03:06:00,
2013-12-25 22:11:00,26.5,17.7,30.42,SSE,159,0.0,0.0,69,0.00,,,0.00,0,Wunderground v.1.15,2013-12-26 03:11:00,
2013-12-25 22:16:00,26.4,17.6,30.42,SSE,159,0.0,0.0,69,0.00,,,0.00,0,Wunderground v.1.15,2013-12-26 03:16:00,
2013-12-25 22:21:00,26.4,17.6,30.42,SSE,161,0.0,0.0,69,0.00,,,0.00,0,Wunderground v.1.15,2013-12-26 03:21:00,
2013-12-25 22:26:00,26.4,17.6,30.42,SSE,161,0.0,0.0,69,0.00,,,0.00,0,Wunderground v.1.15,2013-12-26 03:26:00,
2013-12-25 22:31:00,26.4,17.9,30.42,SSE,161,0.0,0.0,70,0.00,,,0.00,0,Wunderground v.1.15,2013-12-26 03:31:00,
2013-12-25 22:37:00,26.3,17.8,30.42,SSE,157,0.0,0.0,70,0.00,,,0.00,0,Wunderground v.1.15,2013-12-26 03:37:00,
2013-12-25 22:42:00,26.3,18.2,30.42,SSE,157,0.0,0.0,71,0.00,,,0.00,0,Wunderground v.1.15,2013-12-26 03:42:00,
2013-12-25 22:47:00,26.3,18.2,30.41,SSE,158,0.0,0.0,71,0.00,,,0.00,0,Wunderground v.1.15,2013-12-26 03:47:00,
2013-12-25 22:52:00,26.3,18.5,30.41,SSE,157,0.0,0.0,72,0.00,,,0.00,0,Wunderground v.1.15,2013-12-26 03:52:00,
2013-12-25 22:57:00,26.2,18.4,30.41,SSE,159,0.0,0.0,72,0.00,,,0.00,0,Wunderground v.1.15,2013-12-26 03:57:00,
2013-12-25 23:02:00,26.2,18.4,30.41,SSE,159,0.0,0.0,72,0.00,,,0.00,0,Wunderground v.1.15,2013-12-26 04:02:00,
2013-12-25 23:07:00,26.2,18.7,30.41,SSE,159,0.0,0.0,73,0.00,,,0.00,0,Wunderground v.1.15,2013-12-26 04:07:00,
2013-12-25 23:12:00,26.2,19.0,30.41,SSE,159,0.0,0.0,74,0.00,,,0.00,0,Wunderground v.1.15,2013-12-26 04:12:00,
2013-12-25 23:17:00,26.1,18.6,30.40,SSE,159,0.0,0.0,73,0.00,,,0.00,0,Wunderground v.1.15,2013-12-26 04:17:00,
2013-12-25 23:22:00,26.1,18.9,30.40,SSE,159,0.0,0.0,74,0.00,,,0.00,0,Wunderground v.1.15,2013-12-26 04:22:00,
2013-12-25 23:27:00,26.1,18.9,30.39,SSE,159,0.0,0.0,74,0.00,,,0.00,0,Wunderground v.1.15,2013-12-26 04:27:00,
2013-12-25 23:32:00,26.0,19.2,30.39,SSE,159,0.0,0.0,75,0.00,,,0.00,0,Wunderground v.1.15,2013-12-26 04:32:00,
2013-12-25 23:37:00,26.0,19.2,30.39,SSE,159,0.0,0.0,75,0.00,,,0.00,0,Wunderground v.1.15,2013-12-26 04:37:00,
2013-12-25 23:42:00,26.0,19.2,30.39,SSE,159,0.0,0.0,75,0.00,,,0.00,0,Wunderground v.1.15,2013-12-26 04:42:00,
2013-12-25 23:47:00,25.9,19.1,30.39,SSE,159,0.0,0.0,75,0.00,,,0.00,0,Wunderground v.1.15,2013-12-26 04:47:00,
2013-12-25 23:52:00,25.9,19.1,30.39,SSE,159,0.0,0.0,75,0.00,,,0.00,0,Wunderground v.1.15,2013-12-26 04:52:00,
2013-12-25 23:57:00,25.9,19.4,30.39,SSE,159,0.0,0.0,76,0.00,,,0.00,0,Wunderground v.1.15,2013-12-26 04:57:00,